Hourly Data Report for November 22, 2020

CARBERRY CS
MANITOBA
Current Station Operator: ECCC - MSC

49°54'20.900" N
99°21'26.800" W
383.50 m
5010547
71170
WZE

Download Data

Hourly Data (November 2020)
Hourly Data Report for November 22, 2020
TIME
LST
Temp Definition
°C
Dew Point Definition
°C
Rel Hum Definition
%
Precip. Amount Definition
mm

Wind Dir Definition
10's deg

Wind Spd Definition
km/h
Visibility Definition
km
Stn Press Definition
kPa
Hmdx Definition


Wind Chill Definition


Weather Definition


00:00 -8.6 -9.8 91 0.0 25 13   97.50   -15 LegendNANA
01:00 -8.2 -9.8 88 0.0 25 11   97.43   -13 LegendNANA
02:00 -7.1 -8.6 89 0.0 27 22   97.45   -15 LegendNANA
03:00 -6.6 -8.2 89 0.0 27 20   97.49   -14 LegendNANA
04:00 -7.1 -8.4 91 0.0 24 10   97.44   -12 LegendNANA
05:00 -5.9 -7.7 87 0.0 26 26   97.45   -14 LegendNANA
06:00 -5.6 -7.7 85 0.0 27 19   97.53   -12 LegendNANA
07:00 -5.3 -8.1 81 0.0 30 20   97.58   -12 LegendNANA
08:00 -8.4 -10.8 83 0.0 30 16   97.68   -15 LegendNANA
09:00 -9.4 -11.7 83 0.0 30 15   97.75   -16 LegendNANA
10:00 -7.8 -11.0 78 0.0 30 18   97.80   -15 LegendNANA
11:00 -6.6 -11.0 71 0.0 31 24   97.82   -14 LegendNANA
12:00 -6.2 -10.9 70 0.0 31 22   97.81   -13 LegendNANA
13:00 -5.5 -10.6 67 0.0 31 18   97.81   -12 LegendNANA
14:00 -5.1 -10.7 65 0.0 32 13   97.79   -10 LegendNANA
15:00 -5.0 -10.4 66 0.0 32 11   97.79   -10 LegendNANA
16:00 -5.6 -10.9 66 0.0 33 6   97.78   -8 LegendNANA
17:00 -7.0 -10.6 76 0.0 34 5   97.80   -10 LegendNANA
18:00 -11.4 -13.1 88 0.0 8 11   97.89   -17 LegendNANA
19:00 -13.1 -14.1 92 0.0 7 7   97.90   -18 LegendNANA
20:00 -10.8 -11.7 94 0.0 8 7   97.91   -15 LegendNANA
21:00 -9.2 -10.1 93 0.0 10 12   97.85   -15 LegendNANA
22:00 -9.5 -10.5 92 0.0 9 16   97.85   -16 LegendNANA
23:00 -9.4 -10.5 92 0.0 11 12   97.88   -15 LegendNANA

Notes on Data Quality.

Legend

  • E = Estimated
  • M = Missing
  • NA = Not Available*
  • [empty] = Indicates an unobserved value
Date modified: